Terminal Aerodrome Forecast
Issued by NWS Twin Cities, MN

Home | Current Version | Previous Version | Graphics & Text | Print | Product List | Glossary On
Versions: 1 2 3 4 5 6 7 8 9 10 11 12 13 14 15 16 17 18 19 20 21 22 23 24 25 26 27 28 29
000
FTUS43 KMPX 200800 AAA
TAFMSP
TAF AMD
KMSP 200850Z 2009/2112 16007KT P6SM OVC050
     FM201200 18007KT P6SM BKN050
     FM201400 19014G21KT P6SM SCT050 BKN200
     FM210200 18007KT P6SM SCT200=

USA.gov is the U.S. government's official web portal to all federal, state and local government web resources and services.